Time,TemperatureF,DewpointF,PressureIn,WindDirection,WindDirectionDegrees,WindSpeedMPH,WindSpeedGustMPH,Humidity,HourlyPrecipIn,Conditions,Clouds,dailyrainin,SoftwareType,DateUTC
2013-06-02 00:02:00,60.0,54.0,-100.00,WNW,300,20.0,27.0,82,0.00,,,-99.99,,2013-06-02 05:02:00,
2013-06-02 00:12:00,59.0,54.0,-100.00,NW,305,17.0,23.0,82,0.00,,,-99.99,,2013-06-02 05:12:00,
2013-06-02 00:22:00,59.0,54.0,-100.00,WNW,295,13.0,21.0,82,0.00,,,-99.99,,2013-06-02 05:22:00,
2013-06-02 00:32:00,58.0,53.0,-100.00,WNW,300,14.0,22.0,83,0.00,,,-99.99,,2013-06-02 05:32:00,
2013-06-02 00:42:00,58.0,53.0,-100.00,WNW,300,14.0,22.0,83,0.00,,,-99.99,,2013-06-02 05:42:00,
2013-06-02 00:52:00,58.0,53.0,-100.00,NW,305,16.0,22.0,83,0.00,,,-99.99,,2013-06-02 05:52:00,
2013-06-02 01:01:00,58.0,53.0,-100.00,NW,305,16.0,22.0,83,0.00,,,-99.99,,2013-06-02 06:01:00,
2013-06-02 01:12:00,58.0,53.0,-100.00,NW,305,14.0,21.0,84,0.00,,,-99.99,,2013-06-02 06:12:00,
2013-06-02 01:21:00,58.0,53.0,-100.00,WNW,300,9.0,21.0,84,0.00,,,-99.99,,2013-06-02 06:21:00,
2013-06-02 01:32:00,58.0,53.0,-100.00,NW,305,10.0,17.0,84,0.00,,,-99.99,,2013-06-02 06:32:00,
2013-06-02 01:41:00,58.0,53.0,-100.00,NW,305,10.0,17.0,84,0.00,,,-99.99,,2013-06-02 06:41:00,
2013-06-02 01:52:00,58.0,53.0,-100.00,NW,315,9.0,19.0,84,0.00,,,-99.99,,2013-06-02 06:52:00,
2013-06-02 02:01:00,58.0,53.0,-100.00,NW,315,9.0,19.0,84,0.00,,,-99.99,,2013-06-02 07:01:00,
2013-06-02 02:11:00,58.0,53.0,-100.00,NW,315,11.0,19.0,84,0.00,,,-99.99,,2013-06-02 07:11:00,
2013-06-02 02:21:00,58.0,53.0,-100.00,NW,310,9.0,22.0,84,0.00,,,-99.99,,2013-06-02 07:21:00,
2013-06-02 02:32:00,58.0,53.0,-100.00,NW,315,11.0,17.0,83,0.00,,,-99.99,,2013-06-02 07:32:00,
2013-06-02 02:42:00,58.0,53.0,-100.00,NW,315,11.0,17.0,83,0.00,,,-99.99,,2013-06-02 07:42:00,
2013-06-02 02:52:00,57.0,52.0,-100.00,NW,310,10.0,23.0,83,0.00,,,-99.99,,2013-06-02 07:52:00,
2013-06-02 03:01:00,57.0,52.0,-100.00,NW,310,10.0,23.0,83,0.00,,,-99.99,,2013-06-02 08:01:00,
2013-06-02 03:11:00,57.0,52.0,-100.00,WNW,300,9.0,19.0,83,0.00,,,-99.99,,2013-06-02 08:11:00,
2013-06-02 03:21:00,57.0,52.0,-100.00,NW,315,11.0,17.0,83,0.00,,,-99.99,,2013-06-02 08:21:00,
2013-06-02 03:31:00,57.0,52.0,-100.00,WNW,300,10.0,20.0,83,0.00,,,-99.99,,2013-06-02 08:31:00,
2013-06-02 03:41:00,57.0,52.0,-100.00,WNW,300,10.0,20.0,83,0.00,,,-99.99,,2013-06-02 08:41:00,
2013-06-02 03:52:00,56.0,51.0,-100.00,NNW,330,7.0,15.0,83,0.00,,,-99.99,,2013-06-02 08:52:00,
2013-06-02 04:01:00,56.0,51.0,-100.00,NNW,330,7.0,15.0,83,0.00,,,-99.99,,2013-06-02 09:01:00,
2013-06-02 04:11:00,56.0,51.0,-100.00,NW,325,6.0,17.0,83,0.00,,,-99.99,,2013-06-02 09:11:00,
2013-06-02 04:21:00,56.0,51.0,-100.00,North,355,8.0,17.0,83,0.00,,,-99.99,,2013-06-02 09:21:00,
2013-06-02 04:33:00,56.0,51.0,-100.00,NW,320,4.0,12.0,84,0.00,,,-99.99,,2013-06-02 09:33:00,
2013-06-02 04:42:00,56.0,51.0,-100.00,NW,320,4.0,12.0,84,0.00,,,-99.99,,2013-06-02 09:42:00,
2013-06-02 04:53:00,56.0,51.0,-100.00,NNW,335,6.0,15.0,85,0.00,,,-99.99,,2013-06-02 09:53:00,
2013-06-02 05:02:00,56.0,51.0,-100.00,NNW,335,6.0,15.0,85,0.00,,,-99.99,,2013-06-02 10:02:00,
2013-06-02 05:12:00,55.0,51.0,-100.00,NW,320,6.0,14.0,86,0.00,,,-99.99,,2013-06-02 10:12:00,
2013-06-02 05:22:00,55.0,51.0,-100.00,NW,310,4.0,14.0,86,0.00,,,-99.99,,2013-06-02 10:22:00,
2013-06-02 05:32:00,55.0,51.0,-100.00,NW,320,7.0,14.0,85,0.00,,,-99.99,,2013-06-02 10:32:00,
2013-06-02 05:42:00,55.0,51.0,-100.00,NW,320,7.0,14.0,85,0.00,,,-99.99,,2013-06-02 10:42:00,
2013-06-02 05:52:00,54.0,49.0,-100.00,NNW,330,7.0,12.0,83,0.00,,,-99.99,,2013-06-02 10:52:00,
2013-06-02 06:02:00,54.0,49.0,-100.00,NNW,330,7.0,12.0,83,0.00,,,-99.99,,2013-06-02 11:02:00,
2013-06-02 06:12:00,54.0,49.0,-100.00,NW,325,6.0,15.0,81,0.00,,,-99.99,,2013-06-02 11:12:00,
2013-06-02 06:21:00,54.0,48.0,-100.00,NW,325,5.0,14.0,80,0.00,,,-99.99,,2013-06-02 11:21:00,
2013-06-02 06:32:00,54.0,48.0,-100.00,NNW,330,8.0,15.0,80,0.00,,,-99.99,,2013-06-02 11:32:00,
2013-06-02 06:42:00,54.0,48.0,-100.00,NNW,330,8.0,15.0,80,0.00,,,-99.99,,2013-06-02 11:42:00,
2013-06-02 06:52:00,54.0,48.0,-100.00,NW,325,9.0,17.0,80,0.00,,,-99.99,,2013-06-02 11:52:00,
2013-06-02 07:01:00,54.0,48.0,-100.00,NW,325,9.0,17.0,80,0.00,,,-99.99,,2013-06-02 12:01:00,
2013-06-02 07:11:00,54.0,48.0,-100.00,NNW,345,5.0,16.0,80,0.00,,,-99.99,,2013-06-02 12:11:00,
2013-06-02 07:21:00,54.0,48.0,-100.00,North,350,9.0,15.0,80,0.00,,,-99.99,,2013-06-02 12:21:00,
2013-06-02 07:32:00,54.0,47.0,-100.00,North,0,12.0,19.0,78,0.00,,,-99.99,,2013-06-02 12:32:00,
2013-06-02 07:42:00,54.0,47.0,-100.00,North,0,12.0,19.0,78,0.00,,,-99.99,,2013-06-02 12:42:00,
2013-06-02 07:52:00,54.0,47.0,-100.00,North,0,11.0,21.0,78,0.00,,,-99.99,,2013-06-02 12:52:00,
2013-06-02 08:01:00,54.0,47.0,-100.00,North,0,11.0,21.0,78,0.00,,,-99.99,,2013-06-02 13:01:00,
2013-06-02 08:11:00,54.0,47.0,-100.00,North,0,10.0,19.0,76,0.00,,,-99.99,,2013-06-02 13:11:00,
2013-06-02 08:21:00,54.0,46.0,-100.00,North,350,12.0,23.0,74,0.00,,,-99.99,,2013-06-02 13:21:00,
2013-06-02 08:32:00,54.0,46.0,-100.00,North,0,10.0,21.0,73,0.00,,,-99.99,,2013-06-02 13:32:00,
2013-06-02 08:41:00,54.0,46.0,-100.00,North,0,10.0,21.0,73,0.00,,,-99.99,,2013-06-02 13:41:00,
2013-06-02 08:52:00,55.0,46.0,-100.00,North,0,6.0,18.0,71,0.00,,,-99.99,,2013-06-02 13:52:00,
2013-06-02 09:01:00,55.0,46.0,-100.00,North,0,6.0,18.0,71,0.00,,,-99.99,,2013-06-02 14:01:00,
2013-06-02 09:11:00,56.0,47.0,-100.00,North,5,9.0,17.0,71,0.00,,,-99.99,,2013-06-02 14:11:00,
2013-06-02 09:21:00,56.0,47.0,-100.00,North,0,9.0,14.0,71,0.00,,,-99.99,,2013-06-02 14:21:00,
2013-06-02 09:32:00,55.0,47.0,-100.00,NNW,345,9.0,18.0,75,0.00,,,-99.99,,2013-06-02 14:32:00,
2013-06-02 09:42:00,55.0,47.0,-100.00,NNW,345,9.0,18.0,75,0.00,,,-99.99,,2013-06-02 14:42:00,
2013-06-02 09:52:00,55.0,49.0,-100.00,North,355,9.0,12.0,79,0.00,,,-99.99,,2013-06-02 14:52:00,
2013-06-02 10:01:00,55.0,49.0,-100.00,North,355,9.0,12.0,79,0.00,,,-99.99,,2013-06-02 15:01:00,
2013-06-02 10:11:00,56.0,50.0,-100.00,North,350,4.0,16.0,81,0.00,,,-99.99,,2013-06-02 15:11:00,
2013-06-02 10:21:00,56.0,50.0,-100.00,NNW,340,7.0,13.0,80,0.00,,,-99.99,,2013-06-02 15:21:00,
2013-06-02 10:32:00,54.0,49.0,-100.00,North,0,10.0,19.0,82,0.00,,,-99.99,,2013-06-02 15:32:00,
2013-06-02 10:43:00,54.0,49.0,-100.00,North,0,10.0,19.0,82,0.00,,,-99.99,,2013-06-02 15:43:00,
2013-06-02 10:53:00,56.0,48.0,-100.00,North,0,12.0,18.0,76,0.00,,,-99.99,,2013-06-02 15:53:00,
2013-06-02 11:03:00,56.0,48.0,-100.00,North,0,12.0,18.0,76,0.00,,,-99.99,,2013-06-02 16:03:00,
2013-06-02 11:13:00,55.0,47.0,-100.00,North,355,8.0,19.0,75,0.00,,,-99.99,,2013-06-02 16:13:00,
2013-06-02 11:23:00,56.0,47.0,-100.00,North,0,12.0,18.0,71,0.00,,,-99.99,,2013-06-02 16:23:00,
2013-06-02 11:33:00,57.0,46.0,-100.00,North,0,11.0,18.0,68,0.00,,,-99.99,,2013-06-02 16:33:00,
2013-06-02 11:42:00,57.0,46.0,-100.00,North,0,11.0,18.0,68,0.00,,,-99.99,,2013-06-02 16:42:00,
2013-06-02 11:52:00,57.0,45.0,-100.00,NNW,330,9.0,16.0,65,0.00,,,-99.99,,2013-06-02 16:52:00,
2013-06-02 12:02:00,57.0,45.0,-100.00,NNW,330,9.0,16.0,65,0.00,,,-99.99,,2013-06-02 17:02:00,
2013-06-02 12:12:00,58.0,46.0,-100.00,North,350,10.0,17.0,62,0.00,,,-99.99,,2013-06-02 17:12:00,
2013-06-02 12:22:00,60.0,46.0,-100.00,North,0,16.0,21.0,59,0.00,,,-99.99,,2013-06-02 17:22:00,
2013-06-02 12:32:00,60.0,45.0,-100.00,North,0,10.0,19.0,58,0.00,,,-99.99,,2013-06-02 17:32:00,
2013-06-02 12:42:00,60.0,45.0,-100.00,North,0,10.0,19.0,58,0.00,,,-99.99,,2013-06-02 17:42:00,
2013-06-02 12:52:00,61.0,46.0,-100.00,North,355,12.0,19.0,58,0.00,,,-99.99,,2013-06-02 17:52:00,
2013-06-02 13:01:00,61.0,46.0,-100.00,North,355,12.0,19.0,58,0.00,,,-99.99,,2013-06-02 18:01:00,
2013-06-02 13:11:00,59.0,45.0,-100.00,North,0,11.0,18.0,59,0.00,,,-99.99,,2013-06-02 18:11:00,
2013-06-02 13:21:00,59.0,45.0,-100.00,North,0,11.0,21.0,61,0.00,,,-99.99,,2013-06-02 18:21:00,
2013-06-02 13:32:00,60.0,46.0,-100.00,North,350,7.0,21.0,60,0.00,,,-99.99,,2013-06-02 18:32:00,
2013-06-02 13:42:00,60.0,46.0,-100.00,North,350,7.0,21.0,60,0.00,,,-99.99,,2013-06-02 18:42:00,
2013-06-02 13:52:00,60.0,46.0,-100.00,North,0,10.0,15.0,59,0.00,,,-99.99,,2013-06-02 18:52:00,
2013-06-02 14:01:00,60.0,46.0,-100.00,North,0,10.0,15.0,59,0.00,,,-99.99,,2013-06-02 19:01:00,
2013-06-02 14:11:00,61.0,46.0,-100.00,North,0,6.0,16.0,56,0.00,,,-99.99,,2013-06-02 19:11:00,
2013-06-02 14:21:00,61.0,45.0,-100.00,North,0,4.0,15.0,56,0.00,,,-99.99,,2013-06-02 19:21:00,
2013-06-02 14:32:00,62.0,45.0,-100.00,NNE,15,7.0,16.0,55,0.00,,,-99.99,,2013-06-02 19:32:00,
2013-06-02 14:42:00,62.0,45.0,-100.00,NNE,15,7.0,16.0,55,0.00,,,-99.99,,2013-06-02 19:42:00,
2013-06-02 14:52:00,63.0,46.0,-100.00,North,10,6.0,16.0,54,0.00,,,-99.99,,2013-06-02 19:52:00,
2013-06-02 15:02:00,63.0,46.0,-100.00,North,10,6.0,16.0,54,0.00,,,-99.99,,2013-06-02 20:02:00,
2013-06-02 15:11:00,63.0,46.0,-100.00,North,0,7.0,14.0,54,0.00,,,-99.99,,2013-06-02 20:11:00,
2013-06-02 15:21:00,62.0,45.0,-100.00,North,5,6.0,12.0,54,0.00,,,-99.99,,2013-06-02 20:21:00,
2013-06-02 15:32:00,63.0,45.0,-100.00,North,5,4.0,13.0,52,0.00,,,-99.99,,2013-06-02 20:32:00,
2013-06-02 15:42:00,63.0,45.0,-100.00,North,5,4.0,13.0,52,0.00,,,-99.99,,2013-06-02 20:42:00,
2013-06-02 15:52:00,63.0,45.0,-100.00,NE,35,6.0,12.0,52,0.00,,,-99.99,,2013-06-02 20:52:00,
2013-06-02 16:01:00,63.0,45.0,-100.00,NE,35,6.0,12.0,52,0.00,,,-99.99,,2013-06-02 21:01:00,
2013-06-02 16:11:00,62.0,45.0,-100.00,North,10,6.0,7.0,52,0.00,,,-99.99,,2013-06-02 21:11:00,
2013-06-02 16:21:00,63.0,45.0,-100.00,NW,325,6.0,11.0,52,0.00,,,-99.99,,2013-06-02 21:21:00,
2013-06-02 16:33:00,63.0,45.0,-100.00,North,5,5.0,10.0,50,0.00,,,-99.99,,2013-06-02 21:33:00,
2013-06-02 16:42:00,63.0,45.0,-100.00,North,5,5.0,10.0,50,0.00,,,-99.99,,2013-06-02 21:42:00,
2013-06-02 16:53:00,65.0,45.0,-100.00,North,0,7.0,10.0,49,0.00,,,-99.99,,2013-06-02 21:53:00,
2013-06-02 17:03:00,65.0,45.0,-100.00,North,0,7.0,10.0,49,0.00,,,-99.99,,2013-06-02 22:03:00,
2013-06-02 17:12:00,65.0,45.0,-100.00,North,5,7.0,10.0,47,0.00,,,-99.99,,2013-06-02 22:12:00,
2013-06-02 17:23:00,67.0,46.0,-100.00,North,355,4.0,9.0,46,0.00,,,-99.99,,2013-06-02 22:23:00,
2013-06-02 17:33:00,64.0,44.0,-100.00,NW,315,4.0,12.0,48,0.00,,,-99.99,,2013-06-02 22:33:00,
2013-06-02 17:42:00,64.0,44.0,-100.00,NW,315,4.0,12.0,48,0.00,,,-99.99,,2013-06-02 22:42:00,
2013-06-02 17:52:00,64.0,44.0,-100.00,North,355,4.0,6.0,48,0.00,,,-99.99,,2013-06-02 22:52:00,
2013-06-02 18:02:00,64.0,44.0,-100.00,North,355,4.0,6.0,48,0.00,,,-99.99,,2013-06-02 23:02:00,
2013-06-02 18:12:00,64.0,45.0,-100.00,North,0,3.0,6.0,48,0.00,,,-99.99,,2013-06-02 23:12:00,
2013-06-02 18:22:00,67.0,46.0,-100.00,NNW,335,2.0,5.0,46,0.00,,,-99.99,,2013-06-02 23:22:00,
2013-06-02 18:32:00,66.0,44.0,-100.00,NW,325,4.0,9.0,44,0.00,,,-99.99,,2013-06-02 23:32:00,
2013-06-02 18:42:00,66.0,44.0,-100.00,NW,325,4.0,9.0,44,0.00,,,-99.99,,2013-06-02 23:42:00,
2013-06-02 18:52:00,66.0,44.0,-100.00,NW,310,3.0,7.0,45,0.00,,,-99.99,,2013-06-02 23:52:00,
2013-06-02 19:01:00,66.0,44.0,-100.00,NW,310,3.0,7.0,45,0.00,,,-99.99,,2013-06-03 00:01:00,
2013-06-02 19:11:00,64.0,44.0,-100.00,NW,315,4.0,10.0,46,0.00,,,-99.99,,2013-06-03 00:11:00,
2013-06-02 19:21:00,63.0,44.0,-100.00,NNW,330,3.0,9.0,48,0.00,,,-99.99,,2013-06-03 00:21:00,
2013-06-02 19:32:00,62.0,44.0,-100.00,North,355,2.0,3.0,50,0.00,,,-99.99,,2013-06-03 00:32:00,
2013-06-02 19:42:00,62.0,44.0,-100.00,North,355,2.0,3.0,50,0.00,,,-99.99,,2013-06-03 00:42:00,
2013-06-02 19:51:00,65.0,45.0,-100.00,NNW,345,4.0,5.0,47,0.00,,,-99.99,,2013-06-03 00:51:00,
2013-06-02 20:01:00,65.0,45.0,-100.00,NNW,345,4.0,5.0,47,0.00,,,-99.99,,2013-06-03 01:01:00,
2013-06-02 20:11:00,64.0,43.0,-100.00,North,10,3.0,5.0,47,0.00,,,-99.99,,2013-06-03 01:11:00,
2013-06-02 20:21:00,64.0,43.0,-100.00,NE,35,2.0,4.0,47,0.00,,,-99.99,,2013-06-03 01:21:00,
2013-06-02 20:32:00,63.0,44.0,-100.00,NNW,340,0.0,1.0,49,0.00,,,-99.99,,2013-06-03 01:32:00,
2013-06-02 20:42:00,63.0,44.0,-100.00,NNW,340,0.0,1.0,49,0.00,,,-99.99,,2013-06-03 01:42:00,
2013-06-02 20:52:00,60.0,43.0,-100.00,NW,325,0.0,1.0,52,0.00,,,-99.99,,2013-06-03 01:52:00,
2013-06-02 21:02:00,60.0,43.0,-100.00,NW,325,0.0,1.0,52,0.00,,,-99.99,,2013-06-03 02:02:00,
2013-06-02 21:12:00,59.0,43.0,-100.00,NW,325,0.0,1.0,54,0.00,,,-99.99,,2013-06-03 02:12:00,
2013-06-02 21:22:00,59.0,43.0,-100.00,WNW,290,0.0,0.0,55,0.00,,,-99.99,,2013-06-03 02:22:00,
2013-06-02 21:32:00,59.0,43.0,-100.00,NW,325,0.0,0.0,56,0.00,,,-99.99,,2013-06-03 02:32:00,
2013-06-02 21:42:00,59.0,43.0,-100.00,NW,325,0.0,0.0,56,0.00,,,-99.99,,2013-06-03 02:42:00,
2013-06-02 21:52:00,56.0,45.0,-100.00,NE,35,0.0,1.0,65,0.00,,,-99.99,,2013-06-03 02:52:00,
2013-06-02 22:02:00,56.0,45.0,-100.00,NE,35,0.0,1.0,65,0.00,,,-99.99,,2013-06-03 03:02:00,
2013-06-02 22:12:00,57.0,46.0,-100.00,North,0,0.0,2.0,66,0.00,,,-99.99,,2013-06-03 03:12:00,
2013-06-02 22:22:00,56.0,45.0,-100.00,East,95,0.0,1.0,66,0.00,,,-99.99,,2013-06-03 03:22:00,
2013-06-02 22:33:00,56.0,46.0,-100.00,SSW,195,0.0,0.0,68,0.00,,,-99.99,,2013-06-03 03:33:00,
2013-06-02 22:43:00,56.0,46.0,-100.00,SSW,195,0.0,0.0,68,0.00,,,-99.99,,2013-06-03 03:43:00,
2013-06-02 22:53:00,56.0,46.0,-100.00,SE,140,1.0,4.0,70,0.00,,,-99.99,,2013-06-03 03:53:00,
2013-06-02 23:03:00,56.0,46.0,-100.00,SE,140,1.0,4.0,70,0.00,,,-99.99,,2013-06-03 04:03:00,
2013-06-02 23:12:00,55.0,46.0,-100.00,SSE,155,0.0,2.0,71,0.00,,,-99.99,,2013-06-03 04:12:00,
2013-06-02 23:23:00,54.0,46.0,-100.00,SSE,150,2.0,2.0,72,0.00,,,-99.99,,2013-06-03 04:23:00,
2013-06-02 23:33:00,52.0,46.0,-100.00,ESE,110,1.0,1.0,79,0.00,,,-99.99,,2013-06-03 04:33:00,
2013-06-02 23:42:00,52.0,46.0,-100.00,ESE,110,1.0,1.0,79,0.00,,,-99.99,,2013-06-03 04:42:00,
2013-06-02 23:52:00,52.0,47.0,-100.00,NNE,15,0.0,0.0,82,0.00,,,-99.99,,2013-06-03 04:52:00,